sat.trackr.live / text

‹ back to catalog

STARLINK-30178

NORAD 57447 · 2023-105T

PAYLOAD ACTIVE UNKNOWN

§ Identity

Operator
Country
US
Launch date
2023-07-24
Launch site
AFETR
Launch vehicle
Mass (kg)
RCS (m²)

Purposes: comms

External: N2YO · Heavens-Above · Gunter

§ Orbital elements

Epoch: 2026-05-25T03:39:32.414400Z

Period
94.27 min
Inclination
43.0008°
Eccentricity
0.0001272
Mean motion
15.27578233 rev/d
Perigee alt
482.2 km
Apogee alt
483.9 km
Semi-major
6,861.2 km
B*
5.2664e-5
RAAN
188.2131°
Arg perigee
281.6155°
Mean anomaly
78.4553°
Rev number
15,727

§ Raw data

STARLINK-301781 57447U 23105T   26145.15245850  .00001187  00000+0  52664-4 0  99992 57447  43.0008 188.2131 0001272 281.6155  78.4553 15.27578233157275

JSON: /api/v1/satellites/57447 · /tle

For live sub-satellite position, see the globe view (requires WebGL).

§ Visibility from observer

Set your observer location to see the next 7 days of passes ≥ 10°. The values pass through the URL so the page stays shareable.

No JS? Fill the form by hand. The geolocation button needs JavaScript.